Regional Weather Roundup
Issued by NWS Newport/Morehead, NC

Current Version | Previous Version | Graphics & Text | Print | Product List | Glossary Off
Versions: 1 2 3 4 5 6 7 8 9 10 11 12 13 14 15 16 17 18 19 20 21 22 23 24 25 26 27 28 29 30 31 32 33 34 35 36 37 38 39 40 41 42 43 44 45 46 47 48 49 50

000
ASUS42 KMHX 242010
RWRMHX
WEATHER ROUNDUP FOR EASTERN NORTH CAROLINA
NATIONAL WEATHER SERVICE NEWPORT/MOREHEAD CITY NC
400 PM EDT THU JUL 24 2014

NOTE: "FAIR" INDICATES FEW OR NO CLOUDS BELOW 12,000 FEET
WITH NO SIGNIFICANT WEATHER AND/OR OBSTRUCTIONS TO VISIBILITY

NCZ015>017-031-032-045>047-102-103-242100-
NORTH COAST

CITY           SKY/WX    TMP DP  RH WIND       PRES   REMARKS
EDENTON        MOSUNNY   77  71  80 E6        29.89R
ELIZABETH CITY PTSUNNY   80  69  69 CALM      29.88S
KITTY HAWK     CLOUDY    74  73  95 CALM      29.88R
MANTEO         NOT AVBL

$$

NCZ045>047-081-094-103-104-242100-
CENTRAL COAST

CITY           SKY/WX    TMP DP  RH WIND       PRES   REMARKS
FRISCO         LGT RAIN  75  73  93 SW6       29.89S
SWANQUARTER      N/A     75 N/A N/A CALM      29.85S

$$

NCZ095-097-098-100-101-242100-
SOUTHERN COAST

CITY           SKY/WX    TMP DP  RH WIND       PRES   REMARKS
BEAUFORT       HVY RAIN  73  71  93 NE8       29.91R VSB 1/4
CEDAR ISLAND     N/A     73 N/A N/A S2        29.91F
JACKSONVILLE   TSTM      76  73  91 W7        29.86S
NEWPORT        NOT AVBL
PINEY ISLAND   LGT RAIN  74  32  21 S6        29.87F
WILMINGTON     MOSUNNY   91  76  61 SW9       29.85F HX 103


$$

NCZ011>013-027>030-043-044-078>080-089-090>093-098-242100-
COASTAL PLAIN

CITY           SKY/WX    TMP DP  RH WIND       PRES   REMARKS
AHOSKIE        MOSUNNY   82  70  65 E5        29.87S
CLINTON        MOSUNNY   91  75  60 SW8       29.84F HX 102
ELIZABETHTOWN  PTSUNNY   91  71  52 SW9G17    29.85F
GOLDSBORO      LGT RAIN  75  75  99 VRB1      29.86F
GREENVILLE     CLOUDY    79  73  83 SE3       29.90S
HAVELOCK       NOT AVBL
KENANSVILLE    MOSUNNY   81  71  71 N7        29.87S
KINSTON        LGT RAIN  79  77  94 CALM      29.88S
NEW BERN       CLOUDY    76  72  87 SW3       29.89R
RICHLANDS      PTSUNNY   77  72  83 E6        29.88R THUNDER
ROANOKE RAPIDS NOT AVBL
ROCKY MOUNT    MOSUNNY   85  71  63 E5        29.86F
WASHINGTON     CLOUDY    75  73  91 CALM      29.89R
WHITEVILLE     MOSUNNY   92  73  52 SW7       29.85F HX 100

$$

AMZ130-135-150-152-154-156-158-170-250-252-270-ANZ085-086-088-633-658-670-242100-
MARINE OBSERVATIONS

STATION/POSITION TIME  TEMP    WIND        PRES    WAVE   SWELL
                       AIR SEA DIR/SP/G            HT/PER HT/PER
                 (UTC) (F)     (DEG/KT/KT) (MB)    (FT/S) (FT/S)
CHESAPEAKE LIGHT NOT AVBL
BUOY 44014       2000   76 78   30/  2/  4 1011.0    4/ 6   3/ 6
DUCK             2000   77 72  120/  2/  3 1011.1
2E DUCK          1900                        N/A     2/ 7
OREGON INLET     2000   74 83  250/  1/  2 1012.4
BUOY 44095       2000      77                N/A     3/ 6
20E OREGON INLET 1900          VRB  6/ 10    N/A
HATTERAS CG      2000   74 82  230/  6/  8 1012.6
DIAMOND BUOY     2000          VRB  8/ 10  1011.9    4/ 7   3/ 7
CAPE LOOKOUT     1900   78     350/ 11/ 12 1013.3
BEAUFORT LAB     2000   74 82   10/ 12/ 14 1012.7
30 SE NEW RIVER  2000   82 81  210/ 19/ 21 1011.4    4/ 5   2/ 9
5 SE WRIGHTSVILL 1900   80 82  200/ 17/ 21   N/A
BUOY 41002       1851   82 82  240/ 17/ 21 1016.2    5/ 6   2/13
BUOY 41004       2000   83 83  210/ 17/ 19 1012.7    3/ 6   2/11

$$



USA.gov is the U.S. government's official web portal to all federal, state and local government web resources and services.